Résultats de la compétition "CF Longue Distance" du 25-08-2007 organisée par la ligue MP
     
  Télécharger le fichier CSV.  
     
     

 Circuit "G"

Licence Nom Prénom Temps CN
précédent
Score sur
la course
Différence
1380DIEUDONNEMadeleine0:49:3640004638+638
5033THIEBAULTMonique0:54:35N/A4215N/A
2716HABERKORNDidier0:58:0041113966-145
1877BAUJARDYves0:58:0629703959+989
5167BORRELLIBernadette1:01:24N/A3747N/A
116PIGERAlbert1:04:1134383584+146
3302JEANPIERREM-Therese1:08:0429903380+390
3179RICHARDClaudette1:08:2925953359+764
2557VOGTChristiane1:12:3033293173-156
395BLASCONicole1:13:1930483138+90
1000LEFOUESTJoseph1:15:0234333066-367
14235ANFOSSIGiuseppe1:16:06N/A3023N/A
1438BOUSQUETMichel1:16:2326853012+327
5497COCAULTYvonne1:16:26N/A3010N/A
12687POUCHATValerie1:17:10N/A2981N/A
15274VERDINChristine1:18:20N/A2937N/A
956CHAMBONChristian1:19:5833402877-463
3619LAGOIDETColette1:25:4824992681+182
6886FRANTZFrancoise1:26:35N/A2657N/A
701ABISSEGisele1:28:5828502586-264
2680KIEFFERMireille1:29:3028672570-297
2888MOULIEREM-Bernadett1:29:3835242567-957
6980BIGOTYvette1:30:50N/A2533N/A
295PEETERSSimone1:33:4929232452-471
643IZINGGenevieve1:37:1123352367+32
4490THIEBAULTM-Paule1:37:5820272348+321
512BOCHETRoland1:39:4926402305-335
117PIGERGhislaine1:40:2622922291-1
2446RIFFARDM-Lucie1:44:5026602194-466
11368LAUNEYNoella1:53:31N/A2027N/A
16155ELOY-TOMEOChristine1:54:37N/A2007N/A
725LAURENTTherese2:02:2624051879-526
934TESTOUDMadeleine2:02:4122031875-328
1001LEFOUESTM-Therese2:09:5724111770-641
1098MULLERM-Anne2:15:0416811703+22
10804DAVIDSimone2:19:04N/A1654N/A
14021QUEYROIYvette2:21:45N/A1623N/A
14164EJSMONTMartine2:25:45N/A1578N/A
15894LUDEWIG-JAMESCarolN/AN/A0N/A
1437BOUSQUETHuguetteN/A15860-1586

  Indice de confiance du circuit (moyenne des différences entre CN et score sur la course des 3 à 10 premiers) : 170






 Retour